Content
SEND FEEDBACK

Daily
Averages
Monthly
Summary
United States of America

OROVILLE, CALIFORNIA


Home > North America > United States > California
Elevation: 199 feet     Latitude: 39 30N     Longitude: 121 37W

WEATHER
 
SELECT A DAY
Number of Records: 152,482;   Date Range: 6/17/98 - 9/3/14
 
SHARE

PRINT THIS DATA

[ ← Previous Day ]
WEATHER ALMANAC - JUNE 12, 2013
[ Next Day → ]
[ °C ]   °F
Weather ElementAverageHighLow
Temperature74.8 °F88 °F (5:53 pm)61 °F (3:53 am)
Dewpoint48.9 °F57 °F (8:53 am)24.1 °F (5:53 pm)
Humidity45.3 %81 % (4:53 am)10 % (5:53 pm)
Barometer29.90 in29.95 in (10:53 am)29.86 in (5:53 pm)
Wind Speed3.6 mph5.8 mph (1:53 am)
Weather ElementAverage
Visibility10 mi
Wind DirectionESE (100.9 °)

Weather ElementTotal
Precipitation---
Cooling Degree Days9.5 (Base 65)
Growing Degree Days24.5 (Base 50)
Averaged from 23 records on June 12, 2013
WEATHER CONDITIONS BREAKOUT
WIND DIRECTION BREAKOUT
WEATHER BY HOUR - JUNE 12, 2013
[ °C ]   °F
Local TimeTemperatureDewpointHumidityBarometerVisibilityWind DirectionWind SpeedGust SpeedPrecipitationEventsConditions
1:53 AM66.0 °F55.9 °F70 %29.88 in10.0 miSouth (180°)5.8 mphClear
2:53 AM64.9 °F54.0 °F68 %29.88 in10.0 miSouth (190°)4.6 mphClear
3:53 AM61.0 °F54.0 °F78 %29.88 in10.0 miWNW (300°)3.5 mphClear
4:53 AM61.0 °F55.0 °F81 %29.91 in10.0 miNW (320°)3.5 mphClear
5:53 AM61.0 °F53.1 °F75 %29.91 in10.0 miCalmClear
6:53 AM64.0 °F54.0 °F70 %29.92 in10.0 miEast (100°)3.5 mphClear
7:53 AM68.0 °F55.9 °F65 %29.93 in10.0 miSouth (170°)4.6 mphClear
8:53 AM70.0 °F57.0 °F63 %29.94 in10.0 miSSW (210°)4.6 mphClear
9:53 AM73.0 °F57.0 °F57 %29.94 in10.0 miVariable3.5 mphClear
10:53 AM77.0 °F51.1 °F40 %29.95 in10.0 miVariable3.5 mphClear
11:53 AM78.1 °F53.1 °F42 %29.94 in10.0 miCalmClear
12:53 PM79.0 °F53.1 °F40 %29.93 in10.0 miVariable3.5 mphClear
1:53 PM82.9 °F54.0 °F37 %29.91 in10.0 miVariable4.6 mphClear
2:53 PM84.9 °F52.0 °F32 %29.90 in10.0 miVariable5.8 mphClear
3:53 PM84.9 °F52.0 °F32 %29.88 in10.0 miVariable4.6 mphClear
4:53 PM86.0 °F43.0 °F22 %29.88 in10.0 miVariable5.8 mphClear
5:53 PM88.0 °F24.1 °F10 %29.86 in10.0 miSouth (190°)5.8 mphClear
6:53 PM86.0 °F39.9 °F20 %29.86 in10.0 miCalmClear
7:53 PM84.0 °F46.9 °F27 %29.86 in10.0 miSW (220°)3.5 mphClear
8:53 PM79.0 °F48.0 °F34 %29.87 in10.0 miCalmClear
9:53 PM77.0 °F36.0 °F23 %29.90 in10.0 miVariable3.5 mphClear
10:53 PM73.0 °F34.0 °F24 %29.91 in10.0 miSW (220°)3.5 mphClear
11:53 PM72.0 °F41.0 °F33 %29.94 in10.0 miSW (220°)5.8 mphClear
Hourly data recorded from KOVE, located miles away from Oroville, California







STORIES FROM OUR PARTNERS